Location: Zagreb
(45.8000°N, 16.0000°E)
Time: 12:35:27
(UTC+01:00)

Vanguard 1 Rocket - Pass Details

Date: 11 October 2020
Orbit: 656 x 4221 km, 34.3° (Epoch: 28 October)

Event Time Altitude Azimuth Distance (km) Brightness Sun altitude
Rises 17:20:27 0° 250° (WSW) 3,945 13.2 8.7°
Reaches altitude 10° 17:22:45 10° 243° (WSW) 3,266 13.0 8.3°
Maximum altitude 17:30:43 46° 173° (S) 2,397 9.8 7.0°
Drops below altitude 10° 17:45:45 10° 107° (ESE) 5,981 11.1 4.5°
Sets 17:51:46 0° 103° (ESE) 7,527 11.5 3.4°
